Meteo Giornale » Osservazioni meteo Stati Uniti (USA) » Bridgeport Sikorsky Memorial
ore: 14:52 - Osservazioni Meteo Bridgeport Sikorsky Memorial
Lat. 41° 9' N Lon. 73° 7' W Alt. 3 metri s.l.m.
23 °C
Coperto
Temp. 24 Ore
21 °C
24 °C
Est/Sud-Est
7.4 Km/h
Dew point 22 °C
Umidità 94 %
Visibilità 14 Km
Il sole sorge alle ore 06:19
Il sole tramonta alle ore 19:25
| Data e Ora | Cielo e Fenomeni | T °C | DP °C | Um. % | Pres. hPa | Vis. km | Vento km/h | |
|---|---|---|---|---|---|---|---|---|
| Oggi h: 14:52 | Coperto | 23 | 22 | 94 | 1014 | 14 | E/SE 7.4 | |
| Oggi h: 13:52 | Coperto | 23 | 22 | 94 | 1015 | 14 | S 9.3 | |
| Oggi h: 12:52 | Coperto | 23 | 22 | 94 | 1015 | 11 | S 14.8 | |
| Oggi h: 11:52 | Pioggia Foschia | 22 | 22 | 100 | 1016 | 5 | S/SO 11.1 | |
| Oggi h: 10:59 | Pioggia Foschia | 22 | 22 | 100 | 1016 | 5 | N 5.5 | |
| Oggi h: 10:52 | Pioggia Foschia | 22 | 22 | 100 | 1016 | 5 | S 7.4 | |
| Oggi h: 09:59 | Pioggia Foschia | 22 | 21 | 94 | 1016 | 5 | S 9.3 | |
| Oggi h: 09:52 | Pioggia Foschia | 22 | 21 | 94 | 1016 | 5 | S 7.4 | |
| Oggi h: 09:37 | Pioggia Foschia | 22 | 21 | 94 | 1016 | 5 | N 0 | |
| Oggi h: 08:52 | Coperto | 22 | 21 | 94 | 1016 | 10 | S 7.4 | |
| Oggi h: 07:52 | Coperto | 22 | 21 | 94 | 1016 | 14 | N 5.5 | |
| Oggi h: 07:39 | Coperto | 22 | 21 | 94 | 1016 | 10 | S/SE 11.1 | |
| Oggi h: 06:52 | Coperto | 21 | 21 | 100 | 1016 | 10 | S 7.4 | |
| Oggi h: 06:01 | Coperto | 21 | 21 | 100 | 1016 | 10 | N 5.5 | |
| Oggi h: 05:52 | Coperto | 21 | 21 | 100 | 1016 | 10 | N 5.5 | |
| Oggi h: 05:16 | Pioggia | 21 | 21 | 100 | 1016 | 14 | S 9.3 | |
| Oggi h: 05:03 | Pioggia Foschia | 21 | 21 | 100 | 1016 | 6 | S/SE 7.4 | |
| Oggi h: 04:52 | Pioggia Foschia | 21 | 21 | 100 | 1016 | 2 | N 5.5 | |
| Oggi h: 04:44 | Pioggia Foschia | 21 | 21 | 100 | 1016 | 5 | N 5.5 | |
| Oggi h: 04:04 | Pioggia Foschia | 21 | 21 | 100 | 1017 | 6 | SO 9.3 | |
| Oggi h: 03:52 | Pioggia Foschia | 21 | 21 | 100 | 1017 | 5 | S/SO 11.1 | |
| Oggi h: 03:19 | Pioggia Foschia | 21 | 21 | 100 | 1017 | 2 | S 9.3 | |
| Oggi h: 03:09 | Pioggia Foschia | 21 | 21 | 100 | 1017 | 5 | S 11.1 | |
| Oggi h: 03:02 | Pioggia Foschia | 21 | 21 | 100 | 1017 | 2 | S/SO 7.4 | |
| Oggi h: 02:52 | Pioggia Foschia | 21 | 20 | 94 | 1017 | 2 | SO 7.4 | |
| Oggi h: 02:48 | Pioggia Foschia | 21 | 21 | 100 | 1017 | 5 | SO 9.3 | |
| Oggi h: 02:40 | Pioggia Foschia | 21 | 20 | 94 | 1017 | 5 | N 5.5 | |
| Oggi h: 02:37 | Pioggia Foschia | 21 | 20 | 94 | 1017 | 2 | N 5.5 | |
| Oggi h: 02:29 | Pioggia Foschia | 21 | 20 | 94 | 1017 | 5 | S/SO 9.3 | |
| Oggi h: 02:22 | Pioggia Foschia | 21 | 21 | 100 | 1017 | 5 | S/SO 11.1 | |
| Oggi h: 02:15 | Pioggia Foschia | 21 | 20 | 94 | 1017 | 3 | S/SO 13 | |
| Oggi h: 01:52 | Pioggia Foschia | 21 | 19 | 88 | 1017 | 10 | S/SO 11.1 | |
| Oggi h: 00:52 | Coperto | 22 | 20 | 88 | 1017 | 10 | N 5.5 | |
| Ieri h: 23:52 | Coperto | 22 | 19 | 83 | 1018 | 10 | S 9.3 | |
| Ieri h: 22:52 | Coperto | 23 | 18 | 73 | 1018 | 10 | S/SO 11.1 | |
| Ieri h: 21:52 | Coperto | 22 | 18 | 78 | 1018 | 10 | S 13 | |
| Ieri h: 20:52 | Coperto | 23 | 18 | 73 | 1018 | 10 | S 9.3 | |
| Ieri h: 19:52 | Coperto | 23 | 18 | 73 | 1018 | 10 | S 11.1 | |
| Ieri h: 19:07 | Coperto | 23 | 18 | 73 | 1018 | 10 | S/SO 13 | |
| Ieri h: 18:52 | Coperto | 23 | 18 | 73 | 1018 | 10 | S 14.8 | |
| Ieri h: 18:31 | Coperto | 23 | 18 | 73 | 1018 | 10 | S 16.7 | |
| Ieri h: 17:52 | Coperto | 24 | 18 | 69 | 1018 | 10 | E 11.1 | |
| Ieri h: 16:52 | Molto Nuvoloso | 23 | 18 | 73 | 1019 | 10 | E/SE 13 | |
| Ieri h: 15:52 | Poco Nuvoloso | 23 | 18 | 73 | 1019 | 10 | E 13 | |



